CT1ETE Weather Reports


time (UTC)temp
C
wind
direction
speed
KPH
gust
KPH
rain 1hr
cm
rain 24hr
cm
rain mn
cm
humidity
%
barometer
mb
20260905204916 27 28 3.2 6.4 0.00 0.00 0.00 51 1020.1
20260905203417 27 28 3.2 6.4 0.00 0.00 0.00 49 1019.8
20260905201916 27 28 1.6 4.8 0.00 0.00 0.00 51 1019.5
20260905200414 27 28 1.6 6.4 0.00 0.00 0.00 51 1019.6
20260905194913 28 28 3.2 6.4 0.00 0.00 0.00 51 1019.3
20260905193412 28 28 0.0 1.6 0.00 0.00 0.00 49 1019.2
20260905191912 28 28 0.0 1.6 0.00 0.00 0.00 50 1019.1
20260905190413 29 28 1.6 3.2 0.00 0.00 0.00 48 1019.1
20260905184912 29 28 1.6 4.8 0.00 0.00 0.00 47 1019.2
20260905183410 30 28 1.6 4.8 0.00 0.00 0.00 47 1019.2
20260905181910 30 28 1.6 4.8 0.00 0.00 0.00 46 1019.4
20260905180409 30 28 1.6 8.0 0.00 0.00 0.00 47 1019.4
20260905175603 30 355 3.2 8.0 0.00 0.00 0.00 43 1019.4
20260905173407 31 323 3.2 4.8 0.00 0.00 0.00 39 1019.5
20260905171906 32 323 1.6 3.2 0.00 0.00 0.00 39 1019.4
20260905170413 32 323 1.6 4.8 0.00 0.00 0.00 39 1019.4
20260905164903 32 323 1.6 4.8 0.00 0.00 0.00 40 1019.4
20260905163402 32 323 1.6 3.2 0.00 0.00 0.00 41 1019.2
20260905161900 31 323 4.8 14.5 0.00 0.00 0.00 40 1019.1
20260905160400 31 244 11.3 17.7 0.00 0.00 0.00 42 1018.9
20260905154900 30 252 8.0 16.1 0.00 0.00 0.00 46 1018.8
20260905153358 30 249 4.8 29.0 0.00 0.00 0.00 48 1019.1
20260905151854 29 250 11.3 22.5 0.00 0.00 0.00 51 1019.1
20260905150352 29 227 11.3 24.1 0.00 0.00 0.00 51 1019.9
20260905144852 30 227 14.5 22.5 0.00 0.00 0.00 50 1019.6
20260905143352 31 244 12.9 22.5 0.00 0.00 0.00 50 1019.5
20260905141851 31 219 9.7 24.1 0.00 0.00 0.00 49 1019.3
20260905140352 32 236 12.9 20.9 0.00 0.00 0.00 46 1019.2
20260905134852 33 239 9.7 19.3 0.00 0.00 0.00 40 1019.2
20260905133352 33 250 8.0 14.5 0.00 0.00 0.00 39 1019.0
20260905131852 34 261 8.0 16.1 0.00 0.00 0.00 37 1018.9
20260905130352 34 286 6.4 16.1 0.00 0.00 0.00 37 1019.0
20260905124848 33 238 8.0 16.1 0.00 0.00 0.00 36 1018.9
20260905123346 33 225 8.0 14.5 0.00 0.00 0.00 37 1019.1
20260905121845 33 232 9.7 17.7 0.00 0.00 0.00 38 1019.1
20260905120341 33 252 3.2 11.3 0.00 0.00 0.00 38 1019.2
20260905114839 33 252 4.8 12.9 0.00 0.00 0.00 38 1019.3
20260905113338 32 248 6.4 14.5 0.00 0.00 0.00 40 1019.5
20260905112530 32 240 6.4 12.9 0.00 0.00 0.00 40 1019.6
20260905110336 32 242 4.8 12.9 0.00 0.00 0.00 44 1019.6
20260905104836 32 236 3.2 8.0 0.00 0.00 0.00 45 1019.5
20260905103335 31 82 1.6 6.4 0.00 0.00 0.00 44 1019.5
20260905101836 31 87 1.6 9.7 0.00 0.00 0.00 43 1019.6
20260905100335 30 87 4.8 9.7 0.00 0.00 0.00 44 1019.4
20260905094835 30 88 4.8 11.3 0.00 0.00 0.00 46 1019.4
20260905094033 30 88 4.8 9.7 0.00 0.00 0.00 49 1019.4
20260905091831 29 93 3.2 6.4 0.00 0.00 0.00 48 1019.4
20260905090331 28 198 1.6 4.8 0.00 0.00 0.00 54 1019.2
20260905084831 28 198 0.0 3.2 0.00 0.00 0.00 54 1019.2
20260905083337 27 198 3.2 4.8 0.00 0.00 0.00 55 1019.3
20260905081830 27 204 3.2 4.8 0.00 0.00 0.00 55 1019.3
20260905080327 26 205 1.6 3.2 0.00 0.00 0.00 56 1019.3
20260905074825 26 205 0.0 1.6 0.00 0.00 0.00 59 1019.2
20260905073323 25 205 0.0 1.6 0.00 0.00 0.00 55 1019.0
20260905071821 24 205 0.0 6.4 0.00 0.00 0.00 56 1019.0
20260905070318 24 205 3.2 6.4 0.00 0.00 0.00 57 1018.9
20260905064818 24 194 1.6 4.8 0.00 0.00 0.00 53 1018.8
20260905063316 24 194 1.6 3.2 0.00 0.00 0.00 52 1018.6
20260905062514 24 194 1.6 4.8 0.00 0.00 0.00 51 1018.5
20260905060316 24 194 3.2 6.4 0.00 0.00 0.00 49 1018.3
20260905060207 24 131 4.8 6.4 0.00 0.00 0.00 52 1018.2
20260905053313 24 205 3.2 4.8 0.00 0.00 0.00 53 1018.2
20260905051808 25 205 3.2 8.0 0.00 0.00 0.00 53 1018.3
20260905050307 25 250 3.2 6.4 0.00 0.00 0.00 52 1018.3
20260905044807 26 250 1.6 4.8 0.00 0.00 0.00 54 1018.6
20260905043307 27 250 3.2 9.7 0.00 0.00 0.00 51 1018.6
20260905041805 28 117 8.0 16.1 0.00 0.00 0.00 40 1018.7
20260905040305 27 88 8.0 16.1 0.00 0.00 0.00 40 1018.9
20260905035516 27 92 8.0 12.9 0.00 0.00 0.00 42 1019.0
20260905033301 27 86 6.4 14.5 0.00 0.00 0.00 43 1019.1
20260905031758 27 95 9.7 17.7 0.00 0.00 0.00 42 1019.2
20260905030956 27 101 9.7 17.7 0.00 0.00 0.00 43 1019.4
20260905024759 27 135 9.7 17.7 0.00 0.00 0.00 43 1019.4
20260905023258 27 109 12.9 19.3 0.00 0.00 0.00 45 1019.5
20260905021759 26 92 11.3 17.7 0.00 0.00 0.00 47 1019.6
20260905020259 26 91 6.4 12.9 0.00 0.00 0.00 52 1019.6
20260905014759 26 135 1.6 6.4 0.00 0.00 0.00 51 1019.6
20260905013258 26 135 1.6 4.8 0.00 0.00 0.00 52 1019.7
20260905011759 27 135 4.8 11.3 0.00 0.00 0.00 50 1019.7
20260905010956 26 136 8.0 12.9 0.00 0.00 0.00 47 1019.8
20260905004759 26 120 4.8 9.7 0.00 0.00 0.00 52 1019.9
20260905003258 26 108 3.2 9.7 0.00 0.00 0.00 55 1019.8
20260905001758 26 95 8.0 12.9 0.00 0.00 0.00 57 1020.0
20260905000945 26 90 8.0 12.9 0.00 0.00 0.00 53 1020.1
20260904234752 26 119 3.2 6.4 0.00 0.00 0.00 57 1020.2
20260904233250 26 119 1.6 6.4 0.00 0.00 0.00 60 1020.4
20260904231748 26 119 4.8 11.3 0.00 0.00 0.00 60 1020.2
20260904230247 26 98 9.7 17.7 0.00 0.00 0.00 58 1020.3
20260904224755 26 131 3.2 8.0 0.00 0.00 0.00 51 1020.5
20260904223240 25 109 6.4 11.3 0.00 0.00 0.00 63 1020.1
20260904222442 25 74 4.8 9.7 0.00 0.00 0.00 69 1020.4
20260904220241 26 96 4.8 9.7 0.00 0.00 0.00 68 1021.2
20260904220140 26 126 3.2 27.4 0.00 0.00 0.00 67 1021.2
20260904213939 26 237 11.3 30.6 0.00 0.00 0.00 64 1021.3
20260904212438 26 342 1.6 6.4 0.00 0.00 0.00 60 1021.2
20260904210240 26 342 4.8 8.0 0.00 0.00 0.00 61 1021.4
20260904205433 26 275 4.8 14.5 0.00 0.00 0.00 64 1020.9